Home > Weather > Erding > Past weeks

Flag for Germany Past Weather in Erding, Bavaria, Germany — Yesterday and Last 2 Weeks

Now
59 °F

Light rain. Broken clouds.


Feels Like: 58 °F
Forecast: 54 / 60 °F
Wind: 6 mph from East

Location: Munich / Franz Josef Strauss Airport

Current Time: May 31, 2016 at 2:13:32 PM

Latest Report: May 31, 2016 at 1:20 PM


Visibility: N/A

Pressure: 29.92 "Hg

Humidity: 82%

Dew Point: 54 °F

Location of ErdingLocation

Past Weather in Erding — Graph

°F

Erding Temperature Yesterday

Maximum temperature yesterday: 70 °F (at 3:50 PM)
Minimum temperature yesterday: 55 °F (at 3:20 AM)
Average temperature yesterday: 60 °F

High & Low Weather Summary for the Past Weeks

 TemperatureHumidityPressure
High81 °F (May 22, 3:20 PM)100% (May 16, 11:20 PM)30.18 "Hg (May 16, 11:20 PM)
Low37 °F (May 17, 5:20 AM)30% (May 22, 3:50 PM)29.59 "Hg (May 29, 4:50 PM)
Average57 °F80%29.94 "Hg
* Reported May 16 1:20 PM — May 31 1:20 PM, Erding, Weather by CustomWeather, © 2016

Note: Actual official high and low records may vary slightly from our data, if they occured in-between our weather recording intervals... More about our weather records

Advertising

Erding Weather History for the Previous 24 Hours

Scroll right to see more
 ConditionsComfort  
Time TempWeatherWind HumidityBarometerVisibility
1:20 PM
Tue, May 31
59 °FLight rain. Broken clouds.6 mph82%29.92 "HgN/A
12:50 PM61 °FLight rain. Broken clouds.2 mph77%29.92 "HgN/A
12:20 PM63 °FLight rain. Broken clouds.2 mph73%29.92 "HgN/A
11:50 AM63 °FBroken clouds.2 mph68%29.89 "HgN/A
11:20 AM63 °FBroken clouds.2 mph68%29.89 "HgN/A
10:50 AM63 °FBroken clouds.1 mph64%29.89 "HgN/A
10:20 AM63 °FBroken clouds.3 mph64%29.89 "HgN/A
9:50 AM63 °FBroken clouds.5 mph68%29.89 "HgN/A
9:20 AM61 °FBroken clouds.6 mph72%29.89 "HgN/A
8:50 AM61 °FPassing clouds.6 mph77%29.89 "HgN/A
8:20 AM59 °FPassing clouds.3 mph88%29.86 "HgN/A
7:50 AM57 °FPassing clouds.3 mph88%29.86 "HgN/A
7:20 AM55 °FSunny.2 mph94%29.86 "Hg10 mi
6:50 AM54 °FSunny.1 mph100%29.86 "Hg10 mi
6:20 AM54 °FSunny.No wind100%29.86 "Hg10 mi
5:50 AM55 °FClear.2 mph94%29.86 "Hg10 mi
5:20 AM55 °FClear.2 mph94%29.86 "Hg10 mi
4:50 AM54 °FClear.2 mph100%29.83 "Hg10 mi
4:20 AM54 °FClear.2 mph100%29.83 "Hg10 mi
3:50 AM55 °FClear.5 mph94%29.83 "Hg10 mi
3:20 AM55 °FClear.5 mph94%29.83 "Hg10 mi
2:50 AM55 °FClear.5 mph94%29.83 "Hg10 mi
2:20 AM55 °FClear.3 mph94%29.83 "Hg10 mi
1:50 AM55 °FClear.5 mph94%29.83 "Hg10 mi
1:20 AM55 °FPartly cloudy.7 mph94%29.83 "HgN/A
12:50 AM55 °FPassing clouds.7 mph100%29.83 "HgN/A
12:20 AM55 °FLight rain. Partly cloudy.5 mph94%29.83 "HgN/A
11:50 PM
Mon, May 30
55 °FLight rain. Partly cloudy.7 mph100%29.83 "HgN/A
11:20 PM55 °FPassing clouds.8 mph100%29.83 "HgN/A
10:50 PM55 °FLight rain. Passing clouds.9 mph100%29.83 "HgN/A
10:20 PM55 °FLight rain. Passing clouds.9 mph100%29.83 "HgN/A
9:50 PM55 °FLight rain. Broken clouds.12 mph100%29.83 "HgN/A
9:20 PM55 °FLight rain. Broken clouds.13 mph100%29.83 "HgN/A
8:50 PM55 °FLight rain. Broken clouds.9 mph100%29.83 "HgN/A
8:20 PM57 °FSprinkles. Broken clouds.14 mph94%29.83 "HgN/A
7:50 PM57 °FRain showers. Broken clouds.13 mph100%29.80 "HgN/A
7:20 PM59 °FSprinkles. Broken clouds.15 mph94%29.80 "HgN/A
6:50 PM59 °FRain showers. Broken clouds.14 mph94%29.80 "HgN/A
6:20 PM59 °FRain. Broken clouds.15 mph94%29.77 "HgN/A
5:50 PM63 °FSprinkles. Broken clouds.15 mph77%29.77 "HgN/A
5:20 PM63 °FScattered showers. Broken clouds.14 mph77%29.77 "HgN/A
4:50 PM66 °FScattered showers. Broken clouds.9 mph64%29.77 "HgN/A
4:20 PM68 °FScattered clouds.7 mph56%29.74 "HgN/A
3:50 PM70 °FScattered clouds.8 mph53%29.74 "HgN/A
3:20 PM68 °FScattered clouds.10 mph56%29.74 "HgN/A
2:50 PM66 °FScattered clouds.10 mph64%29.74 "HgN/A
2:20 PM68 °FScattered clouds.12 mph60%29.74 "HgN/A
Weather by CustomWeather, © 2016

See weather overviewHow to use our weather pages